Location: Engle Ridge Observatory
(44.8122°N, 85.4398°W)
Time: 03:01:37
(UTC-05:00)

Daily predictions for brighter satellites

Satellite Brightness Start Highest point End
(mag) Time Altitude Azimuth Time Altitude Azimuth Time Altitude Azimuth
SL-16 R/B 3.5 04:57:16 35° SE 04:57:16 35° SE 05:00:31 10° SE
SeaSat 1 4.2 04:54:51 10° NNE 04:57:03 26° NE 04:57:03 26° NE
Cosmos 2297 Rocket 3.4 05:05:23 34° NNE 05:05:23 34° NNE 05:08:30 10° NNE
USA 229 DEB 3.9 05:13:19 60° S 05:13:19 60° S 05:19:17 10° SSE
USA 229 3.9 05:13:22 61° S 05:13:22 61° S 05:19:23 10° SSE
Cosmos 2227 Rocket 3.6 05:18:50 27° N 05:18:50 27° N 05:21:27 10° NNE
NOSS 3-1 (A) 4.4 05:22:14 34° NNW 05:25:39 60° NE 05:33:48 10° SE
Feng Yun 1-1 Rocket 4.2 05:20:25 10° NNE 05:25:55 79° ESE 05:26:07 77° SE
ADEOS II 4.3 05:27:43 10° N 05:28:18 13° N 05:28:18 13° N
ATLAS 2AS CENTAUR R/B 4.4 05:28:41 18° NNW 05:33:36 32° NNE 05:40:28 10° E
Cosmos 1340 Rocket 4.3 05:34:58 32° NE 05:35:42 35° ENE 05:39:20 10° SE
Cosmos 1725 Rocket 4.1 05:40:50 54° NW 05:40:50 54° NW 05:46:00 10° N
SL-14 R/B 4.0 05:41:34 52° ESE 05:41:34 52° ESE 05:45:06 10° SSE
Tiangong 2 4.2 05:54:10 10° SSE 05:54:32 10° SSE 05:54:54 10° SE
USA 234 3.9 05:51:46 10° E 05:58:01 49° NNE 06:01:29 26° NW
ERBS 3.9 05:59:50 29° SSE 05:59:50 29° SSE 06:01:41 10° SSE
Cosmos 1603 3.8 05:56:06 28° NNW 05:59:10 77° ENE 06:04:49 10° SSE
Cosmos 2151 2.8 05:59:21 72° N 05:59:46 90° ENE 06:04:01 10° S
NOSS 3-1 (C) 4.0 06:01:36 30° NW 06:05:47 75° WSW 06:14:04 10° SSE
Cosmos 1538 Rocket 4.1 06:13:23 40° NW 06:14:54 53° WSW 06:20:05 10° S
COSMO-SKYMED 1 2.6 06:11:17 10° S 06:15:33 56° W 06:16:07 51° WNW
CZ-2C R/B 4.4 06:13:21 10° NE 06:17:18 28° E 06:21:12 10° SSE
IDEFIX/ARIANE 42P 4.4 06:13:52 10° NNE 06:18:36 32° E 06:23:17 10° SSE
CSL-04 Rocket 4.1 06:13:25 10° NNE 06:18:41 60° ESE 06:23:53 10° S
Cosmos 1805 Rocket 3.9 06:15:10 10° N 06:19:36 66° E 06:23:57 10° SSE
TELKOM 3 4.1 06:21:13 46° E 06:21:13 46° E 06:22:56 10° ENE
CZ-4 R/B 3.4 06:18:22 10° NE 06:21:59 30° E 06:25:38 10° SSE
Cosmos 923 Rocket 4.0 06:18:04 15° NNW 06:22:28 85° ENE 06:27:44 10° SSE
Ariane Rocket 3.1 06:17:22 10° NNE 06:22:31 78° ESE 06:27:36 10° S
Genesis I 3.3 06:24:37 49° WSW 06:24:56 50° WSW 06:28:43 10° SSE
Cosmos 2233 Rocket 4.2 06:20:35 10° SSW 06:26:31 44° WNW 06:32:32 10° N
SL-8 R/B 3.7 06:25:32 39° W 06:27:15 72° SSW 06:32:02 10° ESE
Cosmos 1680 Rocket 3.6 06:25:11 10° NNW 06:30:31 77° ENE 06:35:50 10° SSE
Cosmos 2227 4.1 06:25:29 10° SSW 06:31:06 78° WNW 06:36:46 10° NNE
CZ-3 Stage 3 4.1 06:28:58 10° SW 06:32:54 23° SSE 06:43:20 10° SE
SeaSat 1 3.6 06:33:04 10° N 06:36:51 23° NW 06:36:51 23° NW
SL-16 R/B 3.5 06:39:13 20° WSW 06:39:13 20° WSW 06:42:28 10° SW
Sich 1 3.3 06:36:00 10° N 06:40:23 72° E 06:44:41 10° SSE
ISS -0.7 06:41:58 10° SSW 06:41:58 10° SSW 06:41:58 10° SSW
Cosmos 1633 Rocket 3.3 06:41:10 10° N 06:45:33 71° E 06:49:52 10° SSE
Coronas F rocket 1.7 06:44:22 14° N 06:46:15 53° E 06:48:36 10° SSE
PAYLOAD A 4.0 06:41:46 10° NNE 06:46:51 82° ESE 06:51:41 10° SSW
Cosmos 2297 Rocket 3.5 06:47:14 19° NW 06:47:37 19° NW 06:51:34 10° N
Cosmos 968 Rocket 4.3 06:46:55 19° WSW 06:49:44 30° WNW 06:54:22 10° N
Cosmos 2034 Rocket 3.9 06:44:07 10° S 06:50:18 82° W 06:56:37 10° N
Nadezhda 4 Rocket 4.1 06:45:10 10° N 06:51:33 83° E 06:57:50 10° S
Cosmos 1703 3.4 06:48:51 10° NNW 06:52:40 49° W 06:56:28 10° S
Cosmos 389 Rocket 2.9 06:51:55 10° S 06:55:33 68° E 06:59:13 10° NNE
Meteor 1-28 Rocket 4.2 06:56:39 10° SSW 06:59:47 25° W 07:01:21 19° WNW
Cosmos 2227 Rocket 3.9 07:00:41 13° NW 07:01:10 13° NW 07:03:38 10° NNW
Cosmos 1626 2.3 06:57:47 10° NNW 07:01:25 49° W 07:05:01 10° S
Cosmos 2058 4.0 07:00:42 17° NW 07:02:41 24° W 07:06:00 10° SW
Cosmos 1271 Rocket 3.8 07:00:30 10° SW 07:03:35 23° WNW 07:06:39 10° NNW
PSLV R/B 4.2 07:01:41 14° WSW 07:04:17 43° S 07:07:30 10° ESE
Cosmos 2344 4.1 06:57:28 10° SSW 07:05:02 67° ESE 07:13:37 10° NE
Cosmos 2112 Rocket 4.1 07:00:32 10° NNW 07:05:48 63° WSW 07:11:05 10° S
YAOGAN 1 3.0 07:02:32 10° NNE 07:06:52 65° ESE 07:11:09 10° S
Cosmos 1092 Rocket 4.1 07:03:59 10° N 07:10:19 83° E 07:16:33 10° S
Cosmos 1184 Rocket 3.4 07:08:26 10° NNW 07:11:31 36° W 07:14:35 10° SSW
BREEZE-M DEB (TANK) 2.4 07:09:46 17° WNW 07:11:46 47° NNE 07:13:49 10° E
Cosmos 1340 Rocket 4.2 07:10:40 16° WNW 07:11:55 18° W 07:14:36 10° SW
Cosmos 292 Rocket 4.5 07:12:10 10° NW 07:16:28 34° WSW 07:20:46 10° SSW
Cosmos 2221 3.4 07:12:48 10° SW 07:16:30 27° WNW 07:20:11 10° NNW
Cosmos 1666 Rocket 4.0 07:14:14 10° NNW 07:18:27 42° W 07:22:39 10° SSW
Cosmos 1943 3.4 07:14:28 10° NW 07:20:01 53° WSW 07:25:31 10° S
Cosmos 1464 Rocket 4.5 07:14:14 10° SW 07:20:04 38° WNW 07:25:52 10° N
Cosmos 1484 Rocket 3.7 07:17:16 10° NNE 07:21:14 55° E 07:25:08 10° S
SMAP 3.0 07:20:12 10° N 07:24:52 74° WNW 07:29:30 10° SSW
Cosmos 1356 Rocket 4.5 07:22:13 10° NW 07:25:35 24° W 07:28:58 10° SW
ATLAS 2AS CENTAUR R/B 3.1 07:17:35 10° NW 07:25:45 88° NE 07:33:21 10° SE
APEX 2.9 07:24:15 10° SSW 07:28:02 84° ESE 07:31:08 10° NNE
CORIOLIS 4.2 07:22:52 10° NNE 07:28:20 89° WNW 07:33:46 10° SSW
Cosmos 192 4.4 07:24:36 10° NNW 07:29:35 85° WSW 07:34:33 10° SSE
Helios 1B rocket 2.4 07:25:42 10° S 07:29:46 66° WSW 07:33:52 10° NNW
Cosmos 1933 Rocket 3.6 07:25:38 10° N 07:30:07 84° W 07:34:32 10° S
Tiangong 2 2.6 07:27:34 10° SW 07:30:27 35° SSE 07:33:22 10° E
SJ-7 4.4 07:29:03 10° N 07:33:00 56° WNW 07:36:58 10° SSW
SPOT 3 Rocket 3.6 07:33:38 10° N 07:38:51 72° WNW 07:44:02 10° SSW
USA 234 3.4 07:34:22 10° SE 07:40:53 66° SW 07:47:26 10° NW
COSMOS 2406 4.0 07:35:28 10° NNW 07:41:07 53° ENE 07:46:45 10° SE
MONITOR-E 4.2 07:41:33 10° N 07:44:42 60° WNW 07:47:49 10° SSW
Cosmos 2263 Rocket 2.2 07:39:21 10° SW 07:44:59 63° WNW 07:50:40 10° NNE
